 140.03361 , 35.39028 , 10 ,,,,,,
 8760 ,,,,,,,,
2004,4,1,1,2,2,283.65,9999,0
2004,4,1,2,3,1.9,283.35,9999,0
2004,4,1,3,15,3.4,283.15,9999,0
2004,4,1,4,16,1.4,281.95,9999,0
2004,4,1,5,1,.8,280.45,9999,0
2004,4,1,6,1,.5,280.95,9999,2
2004,4,1,7,16,3.6,282.65,9999,33
2004,4,1,8,16,3.9,283.75,9999,109
2004,4,1,9,16,3.8,284.85,9999,157
2004,4,1,10,16,5.4,285.65,9999,255
2004,4,1,11,15,3.3,287.05,9999,288
2004,4,1,12,15,3.6,288.05,9999,305
2004,4,1,13,14,.5,288.95,9999,305
2004,4,1,14,8,2.4,291.75,9999,263
2004,4,1,15,8,4,291.45,9999,175
2004,4,1,16,7,4.7,290.25,9999,91
2004,4,1,17,7,4.9,289.05,9999,74
2004,4,1,18,6,4.2,287.05,9999,16
2004,4,1,19,6,3.4,285.85,9999,0
2004,4,1,20,6,3.7,285.45,9999,0
2004,4,1,21,6,2.9,286.25,9999,0
2004,4,1,22,6,2.9,286.65,9999,0
2004,4,1,23,6,2.5,287.35,9999,0
2004,4,1,24,7,2.9,287.55,9999,0
2004,4,2,1,6,5.5,288.05,9999,0
2004,4,2,2,7,5.6,287.85,9999,0
2004,4,2,3,7,4.9,287.15,9999,0
2004,4,2,4,13,3,286.65,9999,0
2004,4,2,5,8,2.6,286.35,9999,0
2004,4,2,6,12,2.2,286.45,9999,0
2004,4,2,7,11,3,286.25,9999,2
2004,4,2,8,9,1.6,286.45,9999,25
2004,4,2,9,8,4.9,287.55,9999,43
2004,4,2,10,8,4.9,287.75,9999,50
2004,4,2,11,9,5.8,289.35,9999,144
2004,4,2,12,9,8,290.35,9999,57
2004,4,2,13,9,8.8,293.05,9999,113
2004,4,2,14,10,11.8,294.05,9999,172
2004,4,2,15,11,11.5,294.35,9999,234
2004,4,2,16,10,11.9,293.25,9999,173
2004,4,2,17,10,10.9,292.05,9999,93
2004,4,2,18,10,9.9,290.45,9999,23
2004,4,2,19,10,8.9,289.65,9999,0
2004,4,2,20,11,9,289.05,9999,0
2004,4,2,21,11,8.3,288.55,9999,0
2004,4,2,22,10,4.8,287.15,9999,0
2004,4,2,23,11,4.6,286.55,9999,0
2004,4,2,24,7,1.2,284.25,9999,0
2004,4,3,1,6,1.7,283.05,9999,0
2004,4,3,2,6,2,281.15,9999,0
2004,4,3,3,6,2.1,280.35,9999,0
2004,4,3,4,6,2,279.45,9999,0
2004,4,3,5,6,2.2,278.45,9999,0
2004,4,3,6,7,2.4,278.35,9999,4
2004,4,3,7,7,2.7,280.75,9999,52
2004,4,3,8,7,1.7,285.25,9999,127
2004,4,3,9,6,1.4,288.75,9999,201
2004,4,3,10,7,2.2,290.15,9999,259
2004,4,3,11,9,4.3,291.35,9999,288
2004,4,3,12,10,4.6,292.05,9999,308
2004,4,3,13,11,6.7,291.65,9999,294
2004,4,3,14,12,5.6,291.25,9999,257
2004,4,3,15,11,5.1,291.55,9999,202
2004,4,3,16,10,5.2,292.05,9999,144
2004,4,3,17,9,3.3,290.85,9999,76
2004,4,3,18,7,2.3,288.55,9999,17
2004,4,3,19,9,3.4,287.55,9999,0
2004,4,3,20,9,2.2,287.65,9999,0
2004,4,3,21,11,4,287.55,9999,0
2004,4,3,22,4,3.6,284.35,9999,0
2004,4,3,23,4,3.1,283.35,9999,0
2004,4,3,24,3,1.8,282.85,9999,0
2004,4,4,1,4,1.7,282.55,9999,0
2004,4,4,2,4,2.5,282.15,9999,0
2004,4,4,3,4,2.3,281.85,9999,0
2004,4,4,4,4,1.7,281.65,9999,0
2004,4,4,5,4,3,281.65,9999,0
2004,4,4,6,3,1.9,281.25,9999,0
2004,4,4,7,3,2.5,281.55,9999,16
2004,4,4,8,4,2.7,281.65,9999,34
2004,4,4,9,4,2.4,282.05,9999,26
2004,4,4,10,3,3.5,282.05,9999,57
2004,4,4,11,3,2,281.55,9999,20
2004,4,4,12,2,2.8,281.15,9999,19
2004,4,4,13,3,3.2,280.05,9999,22
2004,4,4,14,2,3.9,279.75,9999,23
2004,4,4,15,1,2.3,279.45,9999,12
2004,4,4,16,1,4.7,279.15,9999,5
2004,4,4,17,2,5,278.95,9999,2
2004,4,4,18,2,3.7,278.35,9999,0
2004,4,4,19,2,4.5,277.25,9999,0
2004,4,4,20,2,3.9,276.85,9999,0
2004,4,4,21,1,3.3,276.85,9999,0
2004,4,4,22,1,3.1,276.55,9999,0
2004,4,4,23,1,2.4,276.15,9999,0
2004,4,4,24,16,3.7,276.35,9999,0
2004,4,5,1,16,4.6,276.75,9999,0
2004,4,5,2,16,2.5,276.85,9999,0
2004,4,5,3,1,2.3,277.15,9999,0
2004,4,5,4,1,1.5,277.25,9999,0
2004,4,5,5,1,2.5,277.35,9999,0
2004,4,5,6,1,2.6,277.85,9999,3
2004,4,5,7,1,2.8,279.25,9999,50
2004,4,5,8,1,4.2,280.45,9999,126
2004,4,5,9,1,4.2,281.95,9999,207
2004,4,5,10,1,3.9,282.85,9999,236
2004,4,5,11,1,3.9,284.05,9999,298
2004,4,5,12,1,4.1,285.45,9999,327
2004,4,5,13,3,2.3,285.95,9999,318
2004,4,5,14,6,2,286.55,9999,286
2004,4,5,15,12,1.5,287.75,9999,232
2004,4,5,16,5,5.2,285.95,9999,167
2004,4,5,17,6,5.2,285.05,9999,94
2004,4,5,18,6,4.3,283.25,9999,24
2004,4,5,19,6,3,281.95,9999,0
2004,4,5,20,6,3.2,280.85,9999,0
2004,4,5,21,6,2.3,280.05,9999,0
2004,4,5,22,6,2.6,279.25,9999,0
2004,4,5,23,6,2.8,278.75,9999,0
2004,4,5,24,7,2.4,278.55,9999,0
2004,4,6,1,7,2.9,278.35,9999,0
2004,4,6,2,7,2.4,278.15,9999,0
2004,4,6,3,7,2.3,278.15,9999,0
2004,4,6,4,6,2.3,278.05,9999,0
2004,4,6,5,7,2.1,277.85,9999,0
2004,4,6,6,7,2.5,278.45,9999,5
2004,4,6,7,6,2.2,281.25,9999,58
2004,4,6,8,6,.6,285.55,9999,134
2004,4,6,9,11,6.3,287.65,9999,150
2004,4,6,10,11,6.1,288.75,9999,199
2004,4,6,11,9,7.2,290.75,9999,282
2004,4,6,12,9,6.8,291.85,9999,327
2004,4,6,13,9,6,292.75,9999,320
2004,4,6,14,10,7.7,292.15,9999,242
2004,4,6,15,10,7.8,290.55,9999,192
2004,4,6,16,9,7.1,290.65,9999,151
2004,4,6,17,9,6.6,288.75,9999,60
2004,4,6,18,9,4.4,287.75,9999,12
2004,4,6,19,8,2.2,286.45,9999,0
2004,4,6,20,9,3.2,286.25,9999,0
2004,4,6,21,9,4.5,286.05,9999,0
2004,4,6,22,8,2.3,285.45,9999,0
2004,4,6,23,10,4.9,286.05,9999,0
2004,4,6,24,10,5.2,286.05,9999,0
2004,4,7,1,10,3.8,285.85,9999,0
2004,4,7,2,9,1.7,285.35,9999,0
2004,4,7,3,11,3.9,285.75,9999,0
2004,4,7,4,10,1.5,285.75,9999,0
2004,4,7,5,10,3.3,285.95,9999,0
2004,4,7,6,10,1.5,285.95,9999,2
2004,4,7,7,0,0,285.85,9999,16
2004,4,7,8,7,.6,288.25,9999,83
2004,4,7,9,12,5,290.15,9999,165
2004,4,7,10,12,6.4,290.55,9999,238
2004,4,7,11,12,6.7,292.05,9999,293
2004,4,7,12,10,6.4,293.25,9999,307
2004,4,7,13,10,6.4,293.65,9999,299
2004,4,7,14,9,8.3,293.75,9999,265
2004,4,7,15,10,8.3,293.75,9999,213
2004,4,7,16,10,9.1,292.75,9999,149
2004,4,7,17,10,8.3,291.85,9999,77
2004,4,7,18,10,9.6,289.95,9999,18
2004,4,7,19,9,8.6,289.65,9999,0
2004,4,7,20,9,7.5,289.55,9999,0
2004,4,7,21,10,8.9,289.95,9999,0
2004,4,7,22,10,11.9,290.35,9999,0
2004,4,7,23,10,7.1,289.95,9999,0
2004,4,7,24,10,5.2,289.95,9999,0
2004,4,8,1,10,8.3,289.95,9999,0
2004,4,8,2,9,5.1,289.65,9999,0
2004,4,8,3,10,5.5,290.05,9999,0
2004,4,8,4,11,5.4,289.65,9999,0
2004,4,8,5,2,4.2,285.35,9999,0
2004,4,8,6,2,3.6,283.15,9999,0
2004,4,8,7,4,2.4,281.95,9999,0
2004,4,8,8,3,3.2,281.45,9999,6
2004,4,8,9,3,3,281.55,9999,11
2004,4,8,10,4,3.3,281.65,9999,53
2004,4,8,11,4,4.1,282.15,9999,61
2004,4,8,12,5,5.6,282.45,9999,89
2004,4,8,13,5,4.8,283.45,9999,91
2004,4,8,14,6,6.2,285.45,9999,207
2004,4,8,15,6,4.9,286.25,9999,229
2004,4,8,16,5,5.7,285.95,9999,174
2004,4,8,17,6,4.8,284.55,9999,81
2004,4,8,18,6,2.9,283.85,9999,8
2004,4,8,19,6,1.9,283.25,9999,0
2004,4,8,20,6,1.5,283.15,9999,0
2004,4,8,21,5,1.3,282.85,9999,0
2004,4,8,22,5,1.9,282.55,9999,0
2004,4,8,23,5,1.7,282.25,9999,0
2004,4,8,24,6,2.3,281.85,9999,0
2004,4,9,1,6,1.2,281.65,9999,0
2004,4,9,2,5,1.6,281.25,9999,0
2004,4,9,3,6,1.5,281.25,9999,0
2004,4,9,4,6,1.8,280.75,9999,0
2004,4,9,5,7,2,280.35,9999,0
2004,4,9,6,5,.8,280.35,9999,6
2004,4,9,7,5,1.1,282.05,9999,59
2004,4,9,8,2,.5,285.75,9999,126
2004,4,9,9,13,1.7,286.75,9999,207
2004,4,9,10,14,2.5,288.35,9999,266
2004,4,9,11,14,4,289.25,9999,242
2004,4,9,12,12,6.7,291.65,9999,320
2004,4,9,13,10,5.7,292.35,9999,285
2004,4,9,14,10,6.4,292.65,9999,194
2004,4,9,15,9,6.4,293.05,9999,200
2004,4,9,16,8,4.9,290.95,9999,70
2004,4,9,17,9,4.3,290.25,9999,35
2004,4,9,18,8,2.4,289.25,9999,17
2004,4,9,19,9,2,287.45,9999,0
2004,4,9,20,8,.8,286.35,9999,0
2004,4,9,21,9,1.2,285.15,9999,0
2004,4,9,22,7,1,285.25,9999,0
2004,4,9,23,6,1.5,284.55,9999,0
2004,4,9,24,6,1.2,283.25,9999,0
2004,4,10,1,7,1.6,282.25,9999,0
2004,4,10,2,6,1.8,281.95,9999,0
2004,4,10,3,5,1.9,281.15,9999,0
2004,4,10,4,5,1.3,280.55,9999,0
2004,4,10,5,6,1.6,280.25,9999,0
2004,4,10,6,6,1.6,280.35,9999,7
2004,4,10,7,7,1.4,282.45,9999,57
2004,4,10,8,0,0,286.25,9999,136
2004,4,10,9,4,2,290.25,9999,213
2004,4,10,10,4,3.3,291.25,9999,271
2004,4,10,11,5,4.2,292.25,9999,315
2004,4,10,12,5,2.3,293.45,9999,331
2004,4,10,13,4,2.7,293.95,9999,320
2004,4,10,14,5,5.2,293.55,9999,290
2004,4,10,15,5,5.5,293.25,9999,240
2004,4,10,16,6,5.5,292.35,9999,170
2004,4,10,17,6,4.9,292.05,9999,96
2004,4,10,18,7,3.3,289.85,9999,23
2004,4,10,19,7,2.8,288.35,9999,0
2004,4,10,20,6,2.2,287.15,9999,0
2004,4,10,21,7,1.6,286.05,9999,0
2004,4,10,22,6,2.3,285.55,9999,0
2004,4,10,23,7,2.4,285.15,9999,0
2004,4,10,24,7,2,284.65,9999,0
2004,4,11,1,6,3.1,283.65,9999,0
2004,4,11,2,7,2.3,282.95,9999,0
2004,4,11,3,6,1.9,282.95,9999,0
2004,4,11,4,6,2.4,282.65,9999,0
2004,4,11,5,6,1.4,282.85,9999,0
2004,4,11,6,6,2.4,283.25,9999,5
2004,4,11,7,8,1.4,284.65,9999,34
2004,4,11,8,7,1.4,287.45,9999,91
2004,4,11,9,7,1.9,291.55,9999,178
2004,4,11,10,12,1.7,292.15,9999,206
2004,4,11,11,15,2.5,293.25,9999,203
2004,4,11,12,12,3,294.35,9999,288
2004,4,11,13,12,3.7,293.95,9999,184
2004,4,11,14,11,7.7,295.15,9999,243
2004,4,11,15,11,7.1,294.45,9999,220
2004,4,11,16,10,5.6,293.75,9999,132
2004,4,11,17,10,5.1,293.05,9999,63
2004,4,11,18,8,3.2,291.55,9999,16
2004,4,11,19,8,2.1,290.55,9999,0
2004,4,11,20,7,1.7,289.45,9999,0
2004,4,11,21,9,2.1,288.85,9999,0
2004,4,11,22,7,2.5,287.95,9999,0
2004,4,11,23,6,1.7,287.85,9999,0
2004,4,11,24,7,1.9,287.35,9999,0
2004,4,12,1,7,1.7,286.85,9999,0
2004,4,12,2,7,1.2,286.35,9999,0
2004,4,12,3,6,1.1,285.25,9999,0
2004,4,12,4,7,1.5,284.65,9999,0
2004,4,12,5,6,1.2,284.65,9999,0
2004,4,12,6,5,1.2,284.35,9999,6
2004,4,12,7,8,.6,286.35,9999,50
2004,4,12,8,9,2,289.75,9999,123
2004,4,12,9,15,2.2,291.05,9999,190
2004,4,12,10,1,.9,292.95,9999,245
2004,4,12,11,15,.9,294.55,9999,290
2004,4,12,12,15,1.8,295.85,9999,310
2004,4,12,13,12,3.4,295.75,9999,296
2004,4,12,14,11,5,296.95,9999,257
2004,4,12,15,11,5.7,296.15,9999,229
2004,4,12,16,11,6.6,295.45,9999,162
2004,4,12,17,10,5.8,294.55,9999,75
2004,4,12,18,9,3.1,292.95,9999,20
2004,4,12,19,8,2.1,291.45,9999,0
2004,4,12,20,7,1.5,290.95,9999,0
2004,4,12,21,6,1,290.15,9999,0
2004,4,12,22,6,.9,289.25,9999,0
2004,4,12,23,5,.9,288.65,9999,0
2004,4,12,24,6,.7,287.85,9999,0
2004,4,13,1,3,1.8,288.95,9999,0
2004,4,13,2,3,2.9,287.35,9999,0
2004,4,13,3,4,3.7,284.95,9999,0
2004,4,13,4,3,3.2,283.45,9999,0
2004,4,13,5,4,2.5,283.05,9999,0
2004,4,13,6,4,2.7,283.05,9999,5
2004,4,13,7,4,3.4,283.55,9999,39
2004,4,13,8,4,3.1,283.75,9999,35
2004,4,13,9,3,4.7,283.55,9999,28
2004,4,13,10,4,3.5,283.95,9999,44
2004,4,13,11,3,4.1,284.55,9999,58
2004,4,13,12,3,2.7,284.45,9999,55
2004,4,13,13,4,3.2,284.25,9999,43
2004,4,13,14,4,3.1,284.95,9999,67
2004,4,13,15,5,4.6,283.95,9999,34
2004,4,13,16,3,2.6,285.15,9999,88
2004,4,13,17,3,3.6,284.45,9999,55
2004,4,13,18,4,1.8,283.55,9999,19
2004,4,13,19,4,2.1,282.75,9999,0
2004,4,13,20,2,2.1,282.45,9999,0
2004,4,13,21,2,1.8,282.15,9999,0
2004,4,13,22,2,3.2,282.25,9999,0
2004,4,13,23,1,1.9,281.55,9999,0
2004,4,13,24,2,1.1,281.05,9999,0
2004,4,14,1,1,1.3,281.25,9999,0
2004,4,14,2,3,.6,281.55,9999,0
2004,4,14,3,4,.7,281.75,9999,0
2004,4,14,4,2,.7,281.75,9999,0
2004,4,14,5,16,.9,281.75,9999,0
2004,4,14,6,6,.8,281.95,9999,7
2004,4,14,7,2,.6,283.15,9999,56
2004,4,14,8,2,1.6,284.35,9999,46
2004,4,14,9,1,1.4,285.15,9999,85
2004,4,14,10,16,1.1,285.95,9999,78
2004,4,14,11,14,1.9,287.05,9999,128
2004,4,14,12,13,1.8,288.25,9999,159
2004,4,14,13,15,3.4,288.15,9999,99
2004,4,14,14,13,1.7,287.55,9999,56
2004,4,14,15,14,1.7,287.85,9999,61
2004,4,14,16,15,1.7,287.15,9999,27
2004,4,14,17,14,1.7,286.75,9999,14
2004,4,14,18,16,1.6,286.55,9999,2
2004,4,14,19,16,1.1,286.35,9999,0
2004,4,14,20,16,2.4,285.95,9999,0
2004,4,14,21,16,2.4,285.75,9999,0
2004,4,14,22,7,.8,285.55,9999,0
2004,4,14,23,15,2.7,285.65,9999,0
2004,4,14,24,0,0,285.55,9999,0
2004,4,15,1,0,0,285.25,9999,0
2004,4,15,2,15,1.3,284.85,9999,0
2004,4,15,3,16,3.2,285.05,9999,0
2004,4,15,4,1,1.3,284.35,9999,0
2004,4,15,5,2,1.9,283.55,9999,0
2004,4,15,6,3,1,283.15,9999,9
2004,4,15,7,3,1.4,284.65,9999,70
2004,4,15,8,2,2,286.25,9999,150
2004,4,15,9,3,2.2,288.55,9999,222
2004,4,15,10,3,2.5,290.35,9999,283
2004,4,15,11,4,3,291.25,9999,319
2004,4,15,12,5,6.4,290.55,9999,323
2004,4,15,13,5,5.4,290.65,9999,292
2004,4,15,14,5,5.8,290.95,9999,282
2004,4,15,15,6,5.6,291.05,9999,253
2004,4,15,16,6,6.2,290.35,9999,182
2004,4,15,17,6,6,289.95,9999,109
2004,4,15,18,6,3.3,288.55,9999,33
2004,4,15,19,5,2,286.55,9999,0
2004,4,15,20,6,1.6,284.35,9999,0
2004,4,15,21,6,1.4,283.75,9999,0
2004,4,15,22,6,1.3,283.15,9999,0
2004,4,15,23,6,1.7,283.05,9999,0
2004,4,15,24,6,1.4,282.85,9999,0
2004,4,16,1,6,1.6,282.75,9999,0
2004,4,16,2,6,1.8,282.55,9999,0
2004,4,16,3,6,2,282.55,9999,0
2004,4,16,4,6,2.1,282.45,9999,0
2004,4,16,5,6,2.1,282.35,9999,0
2004,4,16,6,7,2.8,282.65,9999,6
2004,4,16,7,5,.9,283.85,9999,26
2004,4,16,8,6,2.9,286.05,9999,78
2004,4,16,9,8,2.4,290.35,9999,157
2004,4,16,10,10,4.7,291.95,9999,211
2004,4,16,11,9,3.9,293.85,9999,289
2004,4,16,12,10,4.6,293.95,9999,288
2004,4,16,13,10,5.8,294.95,9999,335
2004,4,16,14,10,5.3,295.15,9999,299
2004,4,16,15,9,5.4,295.55,9999,248
2004,4,16,16,8,5,295.05,9999,179
2004,4,16,17,9,5.8,293.25,9999,101
2004,4,16,18,8,4.9,291.05,9999,29
2004,4,16,19,8,2.7,289.05,9999,0
2004,4,16,20,7,3,288.45,9999,0
2004,4,16,21,7,2.2,288.25,9999,0
2004,4,16,22,6,1.7,289.05,9999,0
2004,4,16,23,8,2.5,288.45,9999,0
2004,4,16,24,7,1.8,288.55,9999,0
2004,4,17,1,8,2.6,288.45,9999,0
2004,4,17,2,10,6.1,289.55,9999,0
2004,4,17,3,11,5.9,289.75,9999,0
2004,4,17,4,10,4.1,288.75,9999,0
2004,4,17,5,11,4.4,289.55,9999,0
2004,4,17,6,10,6.6,289.95,9999,11
2004,4,17,7,10,7.8,291.35,9999,58
2004,4,17,8,10,8.1,292.85,9999,134
2004,4,17,9,10,5.8,294.15,9999,209
2004,4,17,10,10,7.6,295.05,9999,260
2004,4,17,11,11,10,295.85,9999,308
2004,4,17,12,11,9.7,296.85,9999,315
2004,4,17,13,11,8.8,297.35,9999,295
2004,4,17,14,11,7.6,297.85,9999,271
2004,4,17,15,10,6.2,298.35,9999,218
2004,4,17,16,10,6.7,297.35,9999,154
2004,4,17,17,9,2.4,296.95,9999,79
2004,4,17,18,10,1,295.15,9999,21
2004,4,17,19,5,.7,292.85,9999,0
2004,4,17,20,3,2.6,293.15,9999,0
2004,4,17,21,4,5.2,290.55,9999,0
2004,4,17,22,4,6.6,288.15,9999,0
2004,4,17,23,4,2.8,286.95,9999,0
2004,4,17,24,5,4.7,286.35,9999,0
2004,4,18,1,4,2.7,285.75,9999,0
2004,4,18,2,4,1.1,285.15,9999,0
2004,4,18,3,1,1.7,283.95,9999,0
2004,4,18,4,1,.7,282.85,9999,0
2004,4,18,5,2,1.2,282.45,9999,0
2004,4,18,6,2,.6,282.95,9999,12
2004,4,18,7,1,.8,285.15,9999,73
2004,4,18,8,16,.9,286.55,9999,149
2004,4,18,9,1,1.1,289.25,9999,219
2004,4,18,10,13,2.5,290.55,9999,275
2004,4,18,11,13,1,292.35,9999,311
2004,4,18,12,12,5.7,293.25,9999,326
2004,4,18,13,13,3.5,294.15,9999,315
2004,4,18,14,8,4.3,297.25,9999,286
2004,4,18,15,8,5.5,296.35,9999,241
2004,4,18,16,8,5.6,295.55,9999,177
2004,4,18,17,8,5.8,293.55,9999,100
2004,4,18,18,7,4.5,291.15,9999,25
2004,4,18,19,8,2.3,289.85,9999,0
2004,4,18,20,8,1.5,288.95,9999,0
2004,4,18,21,8,1.3,288.35,9999,0
2004,4,18,22,6,1.3,288.55,9999,0
2004,4,18,23,6,1.5,288.25,9999,0
2004,4,18,24,6,1.8,287.75,9999,0
2004,4,19,1,7,1.5,287.35,9999,0
2004,4,19,2,6,2.2,287.65,9999,0
2004,4,19,3,6,1.8,287.45,9999,0
2004,4,19,4,7,2,286.95,9999,0
2004,4,19,5,7,2.4,286.65,9999,0
2004,4,19,6,7,1.6,287.15,9999,7
2004,4,19,7,6,1.8,288.55,9999,23
2004,4,19,8,6,1.1,290.65,9999,34
2004,4,19,9,10,4,292.45,9999,55
2004,4,19,10,8,3.5,293.25,9999,57
2004,4,19,11,9,4.4,294.15,9999,105
2004,4,19,12,9,5.4,294.25,9999,65
2004,4,19,13,9,5.3,294.45,9999,60
2004,4,19,14,9,5.4,294.55,9999,76
2004,4,19,15,9,6.9,294.25,9999,71
2004,4,19,16,9,4.7,293.65,9999,54
2004,4,19,17,9,4.1,292.95,9999,17
2004,4,19,18,8,3.7,292.25,9999,12
2004,4,19,19,8,3.8,291.85,9999,0
2004,4,19,20,8,4.5,291.65,9999,0
2004,4,19,21,8,4.3,291.75,9999,0
2004,4,19,22,8,3.5,292.15,9999,0
2004,4,19,23,9,3.6,291.45,9999,0
2004,4,19,24,7,2.1,290.65,9999,0
2004,4,20,1,9,4.3,291.25,9999,0
2004,4,20,2,9,6.2,291.75,9999,0
2004,4,20,3,9,8.6,292.75,9999,0
2004,4,20,4,10,8.5,292.45,9999,0
2004,4,20,5,10,8.2,292.85,9999,0
2004,4,20,6,9,5.2,292.05,9999,8
2004,4,20,7,10,7.2,292.65,9999,41
2004,4,20,8,12,4.3,292.15,9999,90
2004,4,20,9,16,1.4,292.45,9999,136
2004,4,20,10,10,4.8,295.35,9999,203
2004,4,20,11,12,6.9,296.85,9999,312
2004,4,20,12,10,3.5,298.25,9999,329
2004,4,20,13,9,2.9,298.85,9999,292
2004,4,20,14,11,5.3,299.15,9999,272
2004,4,20,15,11,5.5,299.05,9999,244
2004,4,20,16,9,3.3,299.55,9999,175
2004,4,20,17,11,2.8,297.95,9999,101
2004,4,20,18,11,2.6,296.35,9999,30
2004,4,20,19,16,2.8,295.15,9999,0
2004,4,20,20,16,7.9,293.55,9999,0
2004,4,20,21,16,7.1,291.55,9999,0
2004,4,20,22,16,5.5,290.45,9999,0
2004,4,20,23,16,3.8,289.75,9999,0
2004,4,20,24,16,4.5,289.25,9999,0
2004,4,21,1,16,4.9,288.55,9999,0
2004,4,21,2,15,3.9,288.15,9999,0
2004,4,21,3,16,3.7,287.95,9999,0
2004,4,21,4,1,1.2,287.25,9999,0
2004,4,21,5,4,.8,284.75,9999,0
2004,4,21,6,7,2.3,283.85,9999,11
2004,4,21,7,8,.8,286.65,9999,67
2004,4,21,8,7,.6,289.95,9999,152
2004,4,21,9,14,3.7,291.45,9999,222
2004,4,21,10,14,2.6,292.45,9999,274
2004,4,21,11,13,3.8,293.75,9999,310
2004,4,21,12,11,5.2,294.95,9999,330
2004,4,21,13,11,6.8,295.55,9999,322
2004,4,21,14,11,7.2,295.95,9999,292
2004,4,21,15,9,6.9,296.55,9999,239
2004,4,21,16,9,7,295.75,9999,174
2004,4,21,17,8,4.6,294.75,9999,100
2004,4,21,18,8,4.5,292.35,9999,31
2004,4,21,19,8,3.2,290.75,9999,0
2004,4,21,20,8,2.7,290.15,9999,0
2004,4,21,21,8,2.5,289.95,9999,0
2004,4,21,22,7,1.5,289.15,9999,0
2004,4,21,23,7,1.1,288.95,9999,0
2004,4,21,24,4,1.2,288.05,9999,0
2004,4,22,1,7,1.7,286.95,9999,0
2004,4,22,2,7,1.6,286.35,9999,0
2004,4,22,3,5,.8,285.85,9999,0
2004,4,22,4,6,1.7,285.35,9999,0
2004,4,22,5,6,2.1,285.05,9999,0
2004,4,22,6,6,1.4,285.45,9999,12
2004,4,22,7,7,1.4,286.55,9999,42
2004,4,22,8,1,.7,289.05,9999,103
2004,4,22,9,14,1.4,291.55,9999,191
2004,4,22,10,1,1.3,293.55,9999,239
2004,4,22,11,10,6.1,296.95,9999,305
2004,4,22,12,10,7.2,299.45,9999,322
2004,4,22,13,10,6.9,299.95,9999,316
2004,4,22,14,10,7.2,299.65,9999,283
2004,4,22,15,10,6.5,300.05,9999,232
2004,4,22,16,10,9.2,298.55,9999,160
2004,4,22,17,10,10.4,296.55,9999,89
2004,4,22,18,10,9.5,294.85,9999,30
2004,4,22,19,10,11,293.85,9999,0
2004,4,22,20,10,10.9,293.35,9999,0
2004,4,22,21,10,9.8,293.05,9999,0
2004,4,22,22,10,9.6,293.05,9999,0
2004,4,22,23,10,10.1,292.75,9999,0
2004,4,22,24,10,9,292.55,9999,0
2004,4,23,1,10,8.8,292.35,9999,0
2004,4,23,2,10,8.6,292.45,9999,0
2004,4,23,3,10,6.8,292.05,9999,0
2004,4,23,4,9,6.8,291.65,9999,0
2004,4,23,5,10,7.2,291.65,9999,0
2004,4,23,6,9,6.2,292.35,9999,10
2004,4,23,7,12,2.1,293.25,9999,43
2004,4,23,8,9,6,295.65,9999,122
2004,4,23,9,10,8.9,296.05,9999,151
2004,4,23,10,10,10.1,297.15,9999,174
2004,4,23,11,10,10.8,295.95,9999,128
2004,4,23,12,10,10.1,296.55,9999,197
2004,4,23,13,10,10.2,295.55,9999,89
2004,4,23,14,9,7.6,297.25,9999,156
2004,4,23,15,4,2.9,292.25,9999,130
2004,4,23,16,5,4.6,288.95,9999,65
2004,4,23,17,5,6.2,287.95,9999,92
2004,4,23,18,4,3.8,286.35,9999,26
2004,4,23,19,3,2.7,285.75,9999,0
2004,4,23,20,2,2.2,285.65,9999,0
2004,4,23,21,1,2.5,285.25,9999,0
2004,4,23,22,2,3.1,284.75,9999,0
2004,4,23,23,3,2.3,284.45,9999,0
2004,4,23,24,3,2.5,284.05,9999,0
2004,4,24,1,3,3.3,283.55,9999,0
2004,4,24,2,3,2.1,283.45,9999,0
2004,4,24,3,2,2.8,283.45,9999,0
2004,4,24,4,1,2.8,283.95,9999,0
2004,4,24,5,1,2.8,283.65,9999,0
2004,4,24,6,16,4.8,283.85,9999,6
2004,4,24,7,16,6.8,284.55,9999,49
2004,4,24,8,16,4.4,285.55,9999,89
2004,4,24,9,16,5.7,285.95,9999,155
2004,4,24,10,16,4.9,286.55,9999,136
2004,4,24,11,16,4.3,286.65,9999,86
2004,4,24,12,1,3.5,287.85,9999,78
2004,4,24,13,16,4.4,288.45,9999,254
2004,4,24,14,1,3,288.85,9999,107
2004,4,24,15,10,6.3,285.75,9999,70
2004,4,24,16,9,3.8,284.85,9999,50
2004,4,24,17,8,2,284.35,9999,17
2004,4,24,18,11,3.9,285.05,9999,6
2004,4,24,19,12,3.4,284.55,9999,0
2004,4,24,20,9,2.4,283.15,9999,0
2004,4,24,21,8,1.9,281.65,9999,0
2004,4,24,22,4,.7,280.85,9999,0
2004,4,24,23,6,1.7,279.65,9999,0
2004,4,24,24,6,1.2,278.45,9999,0
2004,4,25,1,6,1.6,277.75,9999,0
2004,4,25,2,7,1.6,276.85,9999,0
2004,4,25,3,5,1.7,276.65,9999,0
2004,4,25,4,6,2,276.25,9999,0
2004,4,25,5,6,1.8,275.95,9999,0
2004,4,25,6,7,1.8,276.75,9999,17
2004,4,25,7,15,5.7,282.55,9999,93
2004,4,25,8,16,8.2,284.05,9999,172
2004,4,25,9,16,8.4,284.95,9999,244
2004,4,25,10,16,7.5,286.35,9999,298
2004,4,25,11,15,4.7,287.35,9999,334
2004,4,25,12,14,2.8,287.95,9999,351
2004,4,25,13,11,4.8,289.75,9999,314
2004,4,25,14,11,2.9,290.45,9999,291
2004,4,25,15,9,4.4,292.55,9999,251
2004,4,25,16,7,6,289.65,9999,144
2004,4,25,17,8,4.2,289.95,9999,96
2004,4,25,18,9,5.8,287.35,9999,37
2004,4,25,19,7,3.5,285.75,9999,0
2004,4,25,20,7,3.4,285.65,9999,0
2004,4,25,21,10,6.1,286.65,9999,0
2004,4,25,22,10,5.2,286.55,9999,0
2004,4,25,23,11,9.9,287.45,9999,0
2004,4,25,24,11,7.4,287.45,9999,0
2004,4,26,1,11,5.9,287.05,9999,0
2004,4,26,2,10,4,286.35,9999,0
2004,4,26,3,3,1,284.55,9999,0
2004,4,26,4,6,.6,282.45,9999,0
2004,4,26,5,7,2,281.45,9999,0
2004,4,26,6,6,2,282.65,9999,13
2004,4,26,7,7,2.3,286.25,9999,84
2004,4,26,8,7,1.7,289.25,9999,145
2004,4,26,9,13,1.1,290.35,9999,211
2004,4,26,10,13,1.5,291.55,9999,274
2004,4,26,11,14,.9,292.95,9999,300
2004,4,26,12,7,2.3,295.65,9999,318
2004,4,26,13,6,5.8,294.95,9999,268
2004,4,26,14,6,3.3,294.55,9999,245
2004,4,26,15,6,5.3,293.95,9999,209
2004,4,26,16,7,5.2,294.75,9999,163
2004,4,26,17,9,5.9,292.95,9999,88
2004,4,26,18,9,3.2,291.15,9999,27
2004,4,26,19,8,3,290.05,9999,2
2004,4,26,20,8,2.7,289.85,9999,0
2004,4,26,21,8,3,289.65,9999,0
2004,4,26,22,8,3.1,290.15,9999,0
2004,4,26,23,8,3.5,289.95,9999,0
2004,4,26,24,8,2.8,289.75,9999,0
2004,4,27,1,9,3.6,289.65,9999,0
2004,4,27,2,8,4.6,289.55,9999,0
2004,4,27,3,8,5.4,289.45,9999,0
2004,4,27,4,8,4.8,289.35,9999,0
2004,4,27,5,8,5.6,289.45,9999,0
2004,4,27,6,8,4.3,289.65,9999,2
2004,4,27,7,8,1.5,289.95,9999,4
2004,4,27,8,9,4.1,289.15,9999,13
2004,4,27,9,9,3.9,289.45,9999,21
2004,4,27,10,8,5,290.85,9999,73
2004,4,27,11,8,5.5,291.25,9999,64
2004,4,27,12,8,5.6,291.25,9999,20
2004,4,27,13,8,7.8,292.05,9999,26
2004,4,27,14,9,9.3,292.05,9999,37
2004,4,27,15,9,9.9,292.45,9999,42
2004,4,27,16,9,9.1,292.75,9999,33
2004,4,27,17,9,12.2,293.65,9999,25
2004,4,27,18,9,10.8,293.85,9999,8
2004,4,27,19,9,10.9,293.65,9999,0
2004,4,27,20,10,11.1,293.05,9999,0
2004,4,27,21,10,11.8,292.65,9999,0
2004,4,27,22,10,9.2,292.25,9999,0
2004,4,27,23,10,9.4,291.85,9999,0
2004,4,27,24,10,9.6,291.55,9999,0
2004,4,28,1,9,7.3,290.35,9999,0
2004,4,28,2,10,8.2,289.85,9999,0
2004,4,28,3,9,4.4,289.15,9999,0
2004,4,28,4,8,5.2,288.45,9999,0
2004,4,28,5,9,7.1,287.75,9999,0
2004,4,28,6,10,11.1,288.35,9999,19
2004,4,28,7,11,7.9,288.65,9999,97
2004,4,28,8,11,10.4,288.95,9999,177
2004,4,28,9,11,10.1,289.35,9999,247
2004,4,28,10,11,9.6,289.75,9999,302
2004,4,28,11,11,8.3,289.45,9999,224
2004,4,28,12,12,2.2,287.85,9999,67
2004,4,28,13,10,5.9,292.15,9999,213
2004,4,28,14,16,3.5,292.05,9999,217
2004,4,28,15,5,6.5,288.45,9999,135
2004,4,28,16,5,6,287.05,9999,149
2004,4,28,17,5,4.6,286.15,9999,81
2004,4,28,18,5,4.3,285.45,9999,33
2004,4,28,19,4,2.3,284.65,9999,0
2004,4,28,20,5,2.4,284.15,9999,0
2004,4,28,21,8,1.2,283.45,9999,0
2004,4,28,22,16,5.7,285.85,9999,0
2004,4,28,23,1,2.5,284.85,9999,0
2004,4,28,24,4,.9,283.35,9999,0
2004,4,29,1,7,1.1,281.75,9999,0
2004,4,29,2,7,1.4,281.55,9999,0
2004,4,29,3,6,.8,281.25,9999,0
2004,4,29,4,16,3.1,284.55,9999,0
2004,4,29,5,16,4.2,284.25,9999,0
2004,4,29,6,16,6.1,285.55,9999,20
2004,4,29,7,16,5.8,286.25,9999,99
2004,4,29,8,16,6.6,287.55,9999,181
2004,4,29,9,16,4.5,289.45,9999,254
2004,4,29,10,16,4.6,290.65,9999,310
2004,4,29,11,16,3.1,291.95,9999,345
2004,4,29,12,1,3.1,293.25,9999,356
2004,4,29,13,2,3.9,294.75,9999,347
2004,4,29,14,2,2.3,295.15,9999,312
2004,4,29,15,8,6,294.65,9999,253
2004,4,29,16,8,4.7,293.95,9999,187
2004,4,29,17,7,4.5,291.65,9999,114
2004,4,29,18,7,4.1,289.35,9999,40
2004,4,29,19,6,2.6,287.25,9999,2
2004,4,29,20,7,2.3,285.85,9999,0
2004,4,29,21,7,1,284.75,9999,0
2004,4,29,22,6,2,285.15,9999,0
2004,4,29,23,6,1.5,284.75,9999,0
2004,4,29,24,5,2.1,284.45,9999,0
2004,4,30,1,7,1.3,284.75,9999,0
2004,4,30,2,7,1.4,284.65,9999,0
2004,4,30,3,7,1.1,284.65,9999,0